Vertical_Velocity
-1 -1 -0 1 0 -1 0 -1 -1 -1 -1 -2 -2 -2 -1 -1 -0 -0 0 -1 -1 -0 -1 -1 -1 -1 -1 -1 -1 -0 0 -0 -0 0 0 -1 -1 -1 -1 -0 -1 -1 0
-2 0 -1 -0 -1 -0 0 -0 -1 -0 0 -0 -1 -2 -1 0 -0 -0 -0 0 0 1 0 -0 -1 -1 -1 -1 -1 -1 -1 -0 -0 -1 -1 1 1 0 -1 -1 0 0 -0
-2 1 -0 1 -1 -1 -1 -0 -2 -0 -1 -0 -1 -0 -1 -0 -0 -0 -0 -0 0 -0 -0 -1 -0 0 -1 -1 -1 -1 -0 -1 -1 -1 -1 -1 -0 1 2 0 -1 -1 -0
-0 1 0 1 0 -1 -2 -1 -1 -0 -0 -0 -1 -0 -1 -1 -1 -0 0 -1 -1 -0 -1 -1 -1 -1 -1 -1 -0 -0 -0 -0 -1 -0 -0 -1 2 1 1 0 0 0 -0
-0 2 0 -0 0 -1 -1 0 -1 -0 0 -0 -0 -1 -1 -1 -0 0 1 -0 -0 -1 -1 -2 -1 -1 -1 -0 -2 -2 -0 -1 -1 -1 -1 -0 -2 -1 -1 -0 -0 0 -1
-1 1 -0 -1 -1 -1 -0 0 -0 -0 1 0 -0 -0 -1 -1 -0 -1 -1 -1 -1 0 -1 -1 -1 -1 -2 -1 -1 -0 -1 -1 -0 -0 -1 -1 -1 0 -2 -0 -1 1 -0
-1 -0 0 -1 0 0 -0 -1 -0 -0 1 1 -0 1 0 -1 -1 -2 -0 -1 -1 -1 -1 -1 -0 -1 -3 -1 -0 -1 -1 -0 1 -0 -1 -2 -0 1 1 -0 0 -1 1
-4 -1 -1 -1 -0 1 1 -1 -0 1 -0 -1 -0 1 1 -0 -1 -2 -1 -1 -1 -0 -1 -1 -2 -1 -2 -2 -3 -2 -2 -1 -1 -1 -2 -1 -2 -0 -1 0 1 2 1
-3 -1 -2 0 -0 -1 -2 -1 -1 -0 -1 -1 -0 -0 0 0 -1 -0 -1 -1 -1 -1 -2 -2 -2 -1 -1 -1 -1 -1 -2 -1 2 -1 -1 1 2 1 -0 -2 -6 -1 -1
-2 -1 -3 -1 -1 -0 -1 -2 -1 -0 -1 -0 -1 -2 0 -0 -2 -1 -1 -0 -2 -2 -2 -1 -1 -0 -1 -0 0 -1 -1 -1 0 -5 -2 0 1 -2 -3 1 2 0 6
-1 -0 -1 0 -0 0 -1 -0 -1 -2 -1 -1 -3 -1 0 -2 0 0 -0 -0 -0 0 -1 -1 -1 -1 -1 -1 -0 1 1 1 -2 -2 0 1 0 -1 -0 -1 -1 -2 -1
0 2 -0 3 0 1 1 -1 -1 -1 -1 -1 -2 -1 -1 -2 -1 -1 -0 -1 -1 -1 0 0 -1 1 1 1 -1 -2 -0 1 -4 -2 0 1 2 4 1 2 -0 2 -0
1 2 -1 1 -1 1 1 -0 -0 1 -0 -2 -2 -1 -1 -3 -2 -1 -1 -0 -0 -1 -1 -1 0 0 -1 -1 -1 -2 -1 1 -2 1 2 -0 -1 -2 -3 -2 -1 -1 0
1 2 -1 1 -3 1 3 -1 3 -1 -0 -2 -1 -1 -1 -2 -1 -2 -2 -0 -0 -1 -1 -1 -1 -1 -2 -1 -0 -2 -1 -1 -3 -1 -1 -1 -1 -1 -0 -1 -1 -1 -1
0 3 -1 -0 -3 -3 2 2 -1 0 -0 -1 -1 -0 -0 0 -1 -2 -2 -1 -1 -1 -1 -2 -1 -3 -3 0 -3 -1 -2 -1 -0 2 -2 -2 0 -0 -0 -2 -1 -1 -1
2 2 -1 -0 -1 -0 -0 -3 -1 0 -0 0 -1 -0 0 -0 -1 -1 -1 0 -1 -1 -3 -3 0 -1 -4 -0 -2 -2 -2 0 -1 1 -0 -2 -1 -3 -1 -1 -1 1 2
3 3 -1 1 1 0 -1 -2 -1 -1 -1 0 -1 -0 -1 -0 -2 -1 1 -1 -2 -2 -1 -4 -4 -2 -3 -2 -2 -3 -0 -1 -2 0 1 -0 2 -0 -1 0 -0 0 1
1 2 -1 0 1 2 -1 -0 -1 -1 -2 -0 -1 -1 -2 -2 -0 -2 -1 -1 -2 0 -2 -1 -2 -3 -1 -2 -3 -1 -1 -3 1 0 1 -0 3 0 -2 -1 1 0 -1
-1 1 0 2 2 -0 -3 -0 -1 -1 -1 -2 -1 -2 -2 -2 -1 -1 -2 -1 -2 -0 -0 -3 -1 -1 -1 -2 -2 1 -1 -1 0 1 -1 0 -0 1 -0 -1 -1 -1 -0
0 1 1 2 0 -1 0 0 -1 -1 -1 -1 -1 -2 -0 -1 -2 -0 -2 -1 -2 -2 -2 -3 -1 -1 -1 -0 0 -1 -1 -2 -2 -2 -0 -1 -1 0 -3 -2 -1 -0 1
-1 2 0 1 -0 -2 -1 -1 1 0 -0 -1 -1 -1 -0 -1 -2 -0 -2 -0 -2 2 -4 -2 -2 -1 -0 -0 -1 -1 -1 -2 -0 -1 -2 1 1 1 2 -1 0 0 1
-1 0 1 0 0 0 -1 -0 1 0 -1 1 -0 0 -0 0 -1 -0 0 -2 -0 -1 -5 -3 -3 -3 -2 0 -1 0 -1 1 -2 -2 -2 -0 -1 -3 -1 1 0 -1 2
1 2 2 3 -1 0 -0 -0 1 0 -1 -1 1 -1 -1 -1 -3 -1 1 -3 1 -1 -3 -3 -3 -1 -1 -3 -0 -1 -3 -1 -2 -2 -3 -3 0 1 -1 -2 -0 -1 -0
2 1 3 3 1 -1 -0 -0 -0 -1 -2 1 -0 1 1 1 -2 0 -1 -0 -2 -0 -2 -2 -1 -1 -0 -1 -3 -2 -1 -0 -0 -1 -3 -4 -3 -2 1 -0 -3 -2 -2
1 3 -0 1 0 -0 0 0 -1 -0 2 0 1 -1 -2 -3 -1 3 -2 -2 -1 0 0 -1 -1 -1 1 -0 -1 -1 -2 -2 -2 -2 4 3 -2 -5 -1 -1 -2 -1 0
2 3 0 2 1 1 0 0 1 1 1 0 1 0 -1 1 3 1 2 2 -0 -1 0 -1 -1 -1 -1 -1 -1 -2 -1 -1 -1 -1 -2 -0 -2 2 -0 -1 1 1 -4
Height
3189 3190 3192 3193 3194 3194 3193 3193 3193 3193 3193 3193 3192 3191 3191 3190 3189 3188 3187 3186 3185 3184 3183 3182 3181 3180 3180 3179 3178 3178 3177 3176 3174 3174 3173 3172 3171 3170 3168 3168 3167 3167 3166
3187 3189 3191 3193 3193 3193 3193 3193 3193 3193 3193 3193 3192 3192 3191 3190 3189 3188 3187 3186 3185 3183 3182 3181 3180 3179 3179 3178 3177 3176 3175 3175 3174 3173 3172 3171 3171 3169 3168 3168 3166 3165 3165
3185 3188 3190 3192 3193 3193 3193 3193 3193 3192 3192 3192 3192 3191 3190 3189 3188 3187 3186 3185 3184 3183 3182 3181 3180 3179 3178 3177 3176 3175 3174 3173 3172 3172 3171 3170 3169 3168 3168 3167 3166 3165 3164
3184 3187 3189 3191 3192 3193 3193 3193 3193 3193 3192 3192 3191 3191 3190 3189 3188 3186 3185 3184 3184 3182 3182 3181 3180 3179 3178 3177 3176 3174 3173 3172 3171 3170 3169 3168 3167 3167 3165 3165 3164 3164 3163
3183 3186 3188 3190 3191 3192 3193 3193 3193 3193 3192 3192 3191 3190 3189 3188 3187 3186 3185 3184 3183 3182 3181 3181 3179 3178 3177 3176 3175 3173 3172 3170 3169 3168 3167 3166 3165 3164 3163 3162 3162 3162 3162
3183 3185 3187 3188 3190 3191 3192 3192 3192 3192 3192 3191 3190 3189 3188 3187 3186 3185 3185 3184 3183 3181 3180 3180 3178 3176 3175 3174 3172 3170 3169 3168 3167 3165 3164 3163 3162 3162 3161 3160 3160 3160 3159
3183 3184 3186 3188 3190 3190 3191 3192 3192 3192 3191 3191 3190 3189 3187 3186 3185 3184 3184 3183 3182 3180 3179 3178 3176 3175 3173 3171 3169 3168 3166 3165 3163 3162 3161 3159 3159 3158 3158 3157 3156 3156 3156
3183 3184 3185 3187 3189 3190 3190 3191 3191 3191 3190 3190 3189 3188 3186 3185 3184 3183 3183 3181 3180 3178 3177 3176 3174 3173 3170 3169 3167 3165 3163 3161 3158 3157 3156 3155 3154 3154 3154 3153 3153 3152 3152
3183 3184 3186 3187 3188 3190 3191 3191 3190 3190 3189 3189 3188 3187 3185 3184 3183 3182 3181 3179 3178 3176 3175 3173 3171 3169 3167 3165 3163 3161 3159 3156 3154 3153 3152 3151 3150 3150 3150 3150 3150 3150 3149
3182 3184 3185 3187 3188 3189 3190 3190 3189 3189 3188 3188 3187 3186 3184 3183 3181 3180 3179 3177 3175 3173 3172 3170 3168 3165 3163 3161 3159 3156 3155 3152 3149 3150 3148 3147 3146 3144 3146 3145 3145 3145 3145
3180 3182 3184 3186 3187 3188 3189 3189 3189 3188 3187 3186 3186 3184 3183 3181 3180 3178 3176 3175 3172 3171 3168 3166 3163 3161 3159 3157 3155 3153 3150 3148 3145 3146 3144 3143 3143 3142 3141 3140 3140 3140 3140
3178 3181 3183 3184 3186 3187 3188 3188 3187 3187 3186 3185 3184 3182 3181 3179 3178 3176 3174 3172 3169 3167 3164 3162 3160 3158 3155 3153 3151 3149 3147 3144 3142 3140 3138 3138 3138 3137 3137 3136 3134 3135 3134
3177 3179 3181 3184 3185 3186 3186 3186 3186 3185 3185 3183 3182 3180 3179 3177 3175 3173 3171 3169 3166 3163 3161 3159 3156 3154 3152 3150 3147 3144 3142 3139 3138 3135 3133 3132 3131 3130 3129 3129 3129 3128 3128
3175 3177 3179 3182 3183 3184 3185 3185 3183 3183 3182 3182 3179 3178 3176 3174 3173 3171 3168 3166 3163 3161 3159 3156 3153 3151 3149 3146 3143 3140 3137 3135 3133 3132 3130 3127 3125 3125 3124 3123 3122 3121 3120
3172 3176 3178 3180 3180 3182 3183 3181 3182 3181 3180 3179 3177 3175 3174 3172 3170 3168 3165 3162 3160 3158 3155 3153 3151 3149 3147 3143 3140 3136 3134 3132 3130 3129 3126 3124 3123 3122 3121 3119 3118 3117 3116
3170 3174 3176 3177 3178 3180 3180 3181 3180 3179 3178 3176 3175 3173 3171 3169 3167 3165 3162 3159 3157 3154 3152 3150 3148 3146 3143 3140 3136 3133 3130 3128 3127 3126 3123 3122 3120 3118 3117 3115 3113 3112 3111
3168 3171 3173 3174 3176 3177 3178 3178 3177 3177 3175 3173 3172 3170 3169 3166 3164 3161 3158 3156 3153 3152 3149 3147 3145 3142 3138 3136 3133 3129 3128 3125 3123 3122 3120 3119 3118 3115 3114 3112 3111 3109 3108
3166 3168 3170 3172 3174 3174 3176 3175 3174 3174 3172 3171 3170 3167 3165 3163 3161 3158 3154 3153 3150 3148 3146 3144 3141 3138 3136 3132 3130 3127 3125 3122 3119 3118 3116 3115 3115 3113 3111 3110 3108 3107 3105
3163 3165 3167 3169 3171 3172 3173 3172 3171 3171 3170 3168 3166 3164 3162 3160 3157 3155 3151 3150 3147 3145 3142 3140 3138 3135 3132 3128 3126 3125 3121 3119 3117 3114 3112 3111 3110 3109 3107 3105 3103 3102 3100
3159 3162 3164 3166 3169 3169 3168 3168 3168 3167 3166 3164 3162 3160 3159 3156 3154 3151 3148 3146 3144 3141 3139 3136 3133 3131 3128 3126 3123 3121 3119 3116 3114 3112 3109 3108 3107 3104 3101 3100 3099 3098 3096
3156 3159 3162 3164 3165 3166 3165 3165 3164 3163 3162 3160 3158 3156 3154 3152 3151 3148 3145 3143 3141 3138 3135 3132 3130 3127 3125 3122 3120 3118 3116 3114 3111 3108 3106 3104 3103 3101 3098 3095 3093 3092 3091
3153 3156 3158 3160 3161 3162 3162 3161 3160 3159 3157 3156 3153 3151 3150 3149 3147 3144 3141 3140 3137 3134 3132 3129 3127 3123 3121 3120 3117 3115 3113 3111 3108 3105 3101 3099 3097 3095 3093 3091 3088 3087 3086
3150 3153 3155 3156 3157 3157 3157 3156 3155 3154 3152 3150 3149 3147 3146 3145 3142 3139 3139 3137 3133 3130 3128 3125 3122 3120 3117 3115 3113 3111 3107 3105 3103 3101 3097 3095 3094 3092 3089 3087 3085 3081 3080
3146 3149 3151 3152 3153 3152 3152 3151 3150 3148 3147 3146 3145 3144 3143 3140 3137 3136 3134 3132 3129 3125 3123 3120 3117 3115 3113 3110 3107 3106 3103 3100 3097 3095 3092 3089 3088 3087 3086 3081 3079 3077 3075
3142 3145 3145 3146 3148 3147 3147 3146 3145 3143 3142 3141 3140 3139 3137 3135 3133 3131 3129 3126 3123 3120 3117 3115 3112 3110 3108 3105 3103 3100 3097 3094 3092 3090 3089 3084 3080 3077 3078 3076 3073 3070 3068
3138 3140 3141 3142 3142 3142 3141 3140 3138 3137 3137 3135 3134 3133 3131 3129 3127 3126 3124 3121 3117 3115 3113 3110 3108 3105 3103 3100 3097 3094 3093 3090 3085 3081 3080 3078 3075 3072 3070 3070 3067 3065 3062